Alturas, CA

4:04 PM PST on February 07, 2016 (GMT -0800)
Alturas Municipal

Weather History for KAAT - July, 2013

Change the Weather History Date:

Friday, July 5, 2013

  Actual Average Record
Temperature  
Mean Temperature 70 °F 65 °F  
Max Temperature 91 °F 85 °F 106 °F (2007)
Min Temperature 48 °F 44 °F 30 °F (1986)
Degree Days  
Heating Degree Days 0 2  
Month to date heating degree days 0 11  
Since 1 June heating degree days 156 191  
Since 1 July heating degree days 0 11  
Cooling Degree Days 5 2  
Month to date cooling degree days 56 7  
Year to date cooling degree days 99 18  
Since 1 June cooling degree days 99 18  
Growing Degree Days 20 (Base 50)    
Moisture  
Dew Point 42 °F    
Average Humidity 52    
Maximum Humidity 86    
Minimum Humidity 17    
Precipitation  
Precipitation 0.00 in 0.00 in 0.48 in (1939)
Month to date precipitation T 0.05  
Year to date precipitation 4.43 8.49  
Sea Level Pressure  
Sea Level Pressure 29.77 in    
Wind  
Wind Speed 5 mph (NW)    
Max Wind Speed 16 mph    
Max Gust Speed 24 mph    
Visibility 10 miles    
Events      
T = Trace of Precipitation, MM = Missing Value Source: NWS Daily Summary

Daily Weather History Graph

Daily Weather History Graph

Search for Another Location

Airport or City:

Trip Planner

Search our weather history database for the weather conditions in past years. The results will help you decide how hot, cold, wet, or windy it might be!

Date:

Astronomy

Jul. 05, 2013 Rise Set
Actual Time 5:34 AM PDT 8:38 PM PDT
Civil Twilight 5:01 AM PDT 9:12 PM PDT
Nautical Twilight 4:18 AM PDT 9:55 PM PDT
Astronomical Twilight 3:27 AM PDT 10:45 PM PDT
Moon 3:38 AM PDT (7/5) 6:37 PM PDT (7/5)
Length of Visible Light 16h 11m
Length of Day
15h 04m
Waning Crescent, 6% of the Moon is Illuminated
Jul 5
Waning Crescent
Jul 8
New
Jul 15
First Quarter
Jul 22
Full
Jul 29
Last Quarter

Hourly Weather History & Observations

Time (PDT) Temp. Dew Point Humidity Pressure Visibility Wind Dir Wind Speed Gust Speed Precip Events Conditions
12:55 AM 62.1 °F 45.0 °F 53% 29.81 in 10.0 mi WSW 4.6 mph - N/A   Clear
1:55 AM 60.1 °F 46.0 °F 60% 29.81 in 10.0 mi West 6.9 mph - N/A   Clear
2:55 AM 59.0 °F 46.9 °F 64% 29.81 in 10.0 mi Calm Calm - N/A   Clear
3:55 AM 54.0 °F 46.0 °F 75% 29.81 in 10.0 mi Calm Calm - N/A   Clear
4:55 AM 50.0 °F 46.0 °F 86% 29.82 in 10.0 mi Calm Calm - N/A   Clear
5:55 AM 50.0 °F 43.0 °F 77% 29.82 in 10.0 mi Calm Calm - N/A   Clear
6:55 AM 57.0 °F 46.0 °F 67% 29.83 in 10.0 mi Calm Calm - N/A   Clear
7:55 AM 62.1 °F 46.0 °F 56% 29.83 in 10.0 mi Calm Calm - N/A   Clear
8:55 AM 66.9 °F 45.0 °F 45% 29.82 in 10.0 mi Calm Calm - N/A   Clear
9:55 AM 72.0 °F 42.1 °F 34% 29.80 in 10.0 mi NNE 4.6 mph - N/A   Clear
10:55 AM 77.0 °F 41.0 °F 28% 29.78 in 10.0 mi NW 6.9 mph - N/A   Clear
11:55 AM 80.1 °F 42.1 °F 26% 29.77 in 10.0 mi Variable 3.5 mph - N/A   Clear
12:55 PM 84.0 °F 43.0 °F 24% 29.76 in 10.0 mi NW 8.1 mph - N/A   Clear
1:55 PM 87.1 °F 44.1 °F 22% 29.73 in 10.0 mi Variable 5.8 mph - N/A   Clear
2:55 PM 90.0 °F 39.9 °F 17% 29.71 in 10.0 mi Variable 6.9 mph - N/A   Clear
3:55 PM 88.0 °F 41.0 °F 19% 29.71 in 10.0 mi Variable 3.5 mph - N/A   Partly Cloudy
4:55 PM 90.0 °F 41.0 °F 18% 29.70 in 10.0 mi NW 10.4 mph - N/A   Clear
5:55 PM 88.0 °F 39.9 °F 18% 29.70 in 10.0 mi WNW 8.1 mph 16.1 mph N/A   Clear
6:55 PM 86.0 °F 39.9 °F 20% 29.70 in 10.0 mi NW 10.4 mph - N/A   Partly Cloudy
7:55 PM 82.9 °F 39.9 °F 22% 29.71 in 10.0 mi NW 9.2 mph - N/A   Partly Cloudy
8:55 PM 79.0 °F 42.1 °F 27% 29.72 in 10.0 mi NW 11.5 mph - N/A   Mostly Cloudy
9:55 PM 77.0 °F 39.0 °F 25% 29.74 in 10.0 mi NW 8.1 mph - N/A   Mostly Cloudy
10:55 PM 71.1 °F 37.9 °F 30% 29.76 in 10.0 mi North 5.8 mph - N/A   Clear
11:55 PM 71.1 °F 28.0 °F 20% 29.76 in 10.0 mi NNW 4.6 mph - N/A   Clear